Quillayute, WA

2:13 AM PDT on May 25, 2017 (GMT -0700)
Quillayute

Weather History for KUIL - October, 2010

Change the Weather History Date:

Friday, October 22, 2010

  Actual Average Record
Temperature  
Mean Temperature 54 °F 49 °F  
Max Temperature 58 °F 56 °F 72 °F (2013)
Min Temperature 49 °F 41 °F 30 °F (1980)
Degree Days  
Heating Degree Days 11 16  
Month to date heating degree days 310  
Since 1 July heating degree days 935  
Cooling Degree Days 0 0  
Month to date cooling degree days 0  
Year to date cooling degree days 19  
Growing Degree Days 4 (Base 50)    
Moisture  
Dew Point 52 °F    
Average Humidity 94    
Maximum Humidity 100    
Minimum Humidity 82    
Precipitation  
Precipitation 0.98 in 0.38 in 2.44 in (2014)
Month to date precipitation 6.68  
Year to date precipitation 67.22  
Sea Level Pressure  
Sea Level Pressure 29.83 in    
Wind  
Wind Speed 7 mph (SSE)    
Max Wind Speed 16 mph    
Max Gust Speed 29 mph    
Visibility 7 miles    
Events Rain    
T = Trace of Precipitation, MM = Missing Value Source: NWS Daily Summary

Daily Weather History Graph

Daily Weather History Graph

Search for Another Location

Airport or City:

Trip Planner

Search our weather history database for the weather conditions in past years. The results will help you decide how hot, cold, wet, or windy it might be!

Date:

Astronomy

Oct. 22, 2010 Rise Set
Actual Time 7:47 AM PDT 6:16 PM PDT
Civil Twilight 7:16 AM PDT 6:48 PM PDT
Nautical Twilight 6:40 AM PDT 7:24 PM PDT
Astronomical Twilight 6:04 AM PDT 8:00 PM PDT
Moon 5:43 PM PDT (10/22) 7:37 AM PDT (10/22)
Length of Visible Light 11h 31m
Length of Day
10h 28m
Full, 100% of the Moon is Illuminated
Oct 22
Full
Oct 22
Full
Oct 30
Last Quarter
Nov 5
New
Nov 13
First Quarter

Hourly Weather History & Observations

Time (PDT) Temp. Dew Point Humidity Pressure Visibility Wind Dir Wind Speed Gust Speed Precip Events Conditions
12:06 AM 53.6 °F 51.8 °F 94% 29.80 in 10.0 mi SSE 9.2 mph 24.2 mph N/A   Overcast
12:53 AM 54.0 °F 51.1 °F 90% 29.80 in 10.0 mi SSE 13.8 mph 24.2 mph 0.00 in Rain Light Rain
1:53 AM 54.0 °F 52.0 °F 93% 29.81 in 6.0 mi South 12.7 mph 20.7 mph 0.07 in Rain Light Rain
1:56 AM 53.6 °F 51.8 °F 94% 29.80 in 8.0 mi SSE 11.5 mph 20.7 mph 0.00 in Rain Light Rain
2:10 AM 53.6 °F 51.8 °F 94% 29.80 in 1.8 mi South 10.4 mph - 0.08 in Rain Rain
2:14 AM 53.6 °F 53.6 °F 100% 29.80 in 2.0 mi South 10.4 mph 18.4 mph 0.13 in Rain Heavy Rain
2:23 AM 53.6 °F 53.6 °F 100% 29.80 in 7.0 mi South 11.5 mph 26.5 mph 0.14 in Rain Light Rain
2:39 AM 53.6 °F 53.6 °F 100% 29.80 in 10.0 mi South 11.5 mph 26.5 mph 0.14 in   Overcast
2:53 AM 54.0 °F 52.0 °F 93% 29.80 in 5.0 mi South 11.5 mph 19.6 mph 0.14 in Rain Light Rain
3:18 AM 53.6 °F 51.8 °F 94% 29.80 in 10.0 mi South 9.2 mph 20.7 mph 0.02 in   Overcast
3:53 AM 54.0 °F 52.0 °F 93% 29.81 in 10.0 mi South 10.4 mph 24.2 mph 0.02 in Rain Light Rain
4:47 AM 53.6 °F 53.6 °F 100% 29.81 in 10.0 mi South 10.4 mph 21.9 mph 0.00 in Rain Light Rain
4:53 AM 54.0 °F 53.1 °F 97% 29.81 in 10.0 mi South 9.2 mph 24.2 mph 0.00 in   Overcast
5:09 AM 53.6 °F 53.6 °F 100% 29.81 in 1.8 mi SSW 8.1 mph 17.3 mph 0.06 in Rain Heavy Rain
5:12 AM 53.6 °F 53.6 °F 100% 29.82 in 1.2 mi Variable 6.9 mph - 0.12 in Rain Heavy Rain
5:17 AM 53.6 °F 53.6 °F 100% 29.82 in 0.8 mi South 11.5 mph 16.1 mph 0.28 in Rain Heavy Rain
5:23 AM 53.6 °F 53.6 °F 100% 29.82 in 1.0 mi SSW 12.7 mph 20.7 mph 0.48 in Rain Heavy Rain
5:28 AM 53.6 °F 53.6 °F 100% 29.82 in 2.0 mi South 9.2 mph 20.7 mph 0.49 in Rain Rain
5:37 AM 53.6 °F 53.6 °F 100% 29.82 in 5.0 mi SSW 12.7 mph 18.4 mph 0.52 in Rain Light Rain
5:53 AM 52.0 °F 52.0 °F 100% 29.83 in 7.0 mi South 9.2 mph - 0.53 in Rain Light Rain
6:53 AM 53.1 °F 53.1 °F 100% 29.84 in 10.0 mi SSE 9.2 mph - 0.00 in   Overcast
7:05 AM 53.6 °F 53.6 °F 100% 29.84 in 9.0 mi Variable 5.8 mph - 0.00 in Rain Light Rain
7:27 AM 51.8 °F 51.8 °F 100% 29.84 in 9.0 mi SSE 10.4 mph 17.3 mph 0.00 in   Overcast
7:53 AM 52.0 °F 52.0 °F 100% 29.86 in 10.0 mi South 5.8 mph - 0.00 in   Overcast
8:53 AM 52.0 °F 52.0 °F 100% 29.86 in 8.0 mi SSE 4.6 mph - 0.01 in   Mostly Cloudy
9:53 AM 54.0 °F 54.0 °F 100% 29.88 in 10.0 mi Variable 5.8 mph - 0.00 in   Scattered Clouds
10:53 AM 54.0 °F 54.0 °F 100% 29.89 in 3.0 mi Variable 5.8 mph 16.1 mph 0.02 in Rain Light Rain
11:04 AM 53.6 °F 53.6 °F 100% 29.89 in 8.0 mi SSE 6.9 mph - 0.00 in Rain Light Rain
11:53 AM 57.0 °F 52.0 °F 83% 29.89 in 10.0 mi SSE 9.2 mph - 0.00 in   Mostly Cloudy
12:53 PM 57.9 °F 54.0 °F 87% 29.87 in 10.0 mi SSE 6.9 mph - N/A   Mostly Cloudy
1:46 PM 57.2 °F 51.8 °F 82% 29.86 in 10.0 mi South 10.4 mph 19.6 mph N/A   Overcast
1:53 PM 55.9 °F 51.1 °F 84% 29.86 in 10.0 mi South 11.5 mph 19.6 mph N/A   Overcast
2:53 PM 54.0 °F 50.0 °F 86% 29.86 in 10.0 mi SE 5.8 mph - 0.00 in   Overcast
3:48 PM 53.1 °F 50.0 °F 89% 29.84 in 2.0 mi ESE 5.8 mph - 0.03 in Rain Light Rain
3:51 PM 53.6 °F 50.0 °F 88% 29.84 in 3.0 mi ESE 5.8 mph - 0.00 in Rain Light Rain
4:27 PM 53.6 °F 51.8 °F 94% 29.84 in 1.5 mi Calm Calm - 0.01 in Rain Light Rain
4:30 PM 53.6 °F 51.8 °F 94% 29.84 in 1.2 mi WSW 6.9 mph - 0.06 in Rain Heavy Rain
4:36 PM 51.8 °F 50.0 °F 94% 29.84 in 2.5 mi ESE 6.9 mph - 0.06 in Rain Light Rain
4:43 PM 53.6 °F 50.0 °F 88% 29.84 in 10.0 mi SE 4.6 mph - 0.06 in   Overcast
4:53 PM 53.1 °F 50.0 °F 89% 29.84 in 10.0 mi ESE 4.6 mph - 0.06 in Rain Light Rain
5:53 PM 52.0 °F 50.0 °F 93% 29.83 in 2.0 mi East 5.8 mph - 0.07 in Rain Rain
6:03 PM 51.8 °F 50.0 °F 94% 29.83 in 10.0 mi South 3.5 mph - 0.00 in   Overcast
6:53 PM 52.0 °F 48.9 °F 89% 29.82 in 10.0 mi ESE 3.5 mph - 0.00 in   Overcast
7:10 PM 51.8 °F 48.2 °F 88% 29.81 in 10.0 mi East 4.6 mph - N/A   Mostly Cloudy
7:53 PM 51.1 °F 48.0 °F 89% 29.81 in 10.0 mi ESE 3.5 mph - N/A   Mostly Cloudy
8:53 PM 51.1 °F 48.9 °F 92% 29.81 in 10.0 mi East 5.8 mph - N/A   Mostly Cloudy
9:53 PM 52.0 °F 48.9 °F 89% 29.80 in 10.0 mi ESE 3.5 mph - 0.00 in Rain Light Rain
10:53 PM 50.0 °F 48.0 °F 93% 29.79 in 10.0 mi East 6.9 mph - 0.00 in   Mostly Cloudy
11:53 PM 50.0 °F 48.0 °F 93% 29.79 in 10.0 mi East 3.5 mph - 0.00 in   Overcast